Regional Weather Roundup
Issued by NWS

Home | Current Version | Previous Version | Graphics & Text | Print | Product List | Glossary On
Versions: 1 2 3 4 5 6 7 8 9 10 11 12 13 14 15 16 17 18 19 20 21 22 23 24 25 26 27 28 29 30 31 32 33 34 35 36 37 38 39 40 41 42 43 44 45 46 47 48 49 50
000
ASUS43 KIND 250209
RWRIN

WEATHER ROUNDUP FOR INDIANA
NATIONAL WEATHER SERVICE INDIANAPOLIS IN
1000 PM EDT FRI OCT 24 2014

NOTE: "FAIR" INDICATES FEW OR NO CLOUDS BELOW 12,000 FEET WITH NO
SIGNIFICANT WEATHER AND/OR OBSTRUCTIONS TO VISIBILITY.

* - STATION DOES NOT REPORT WEATHER SUCH AS PRECIPITATION OR FOG.

+ - STATION NOT QUALITY CONTROLLED BY THE NATIONAL WEATHER SERVICE.
    USE DATA WITH CAUTION...ESPECIALLY DEWPOINT AND RELATIVE
    HUMIDITY OBSERVATIONS.

INZ001>003-010>013-019-020-250300-
NORTHWEST INDIANA

CITY           SKY/WX    TMP DP  RH WIND       PRES   REMARKS
GARY /AIRPORT/ MOCLDY    57  48  72 CALM      29.97S
KNOX *+        MOCLDY    49  46  86 CALM      29.98R
LA PORTE +     MOCLDY    51  51 100 CALM      29.98F FOG
MICHIGAN CITY+ MOCLDY    48  48 100 CALM      29.98S FOG
MONTICELLO +   PTCLDY    53  49  85 S5        29.98F
RENSSELAER +   MOCLDY    55  52  88 SW5       29.99R
VALPARAISO     MOCLDY    51  46  83 CALM      29.98S

$$

LMZ046-743>745-250300-
SOUTHERN LAKE MICHIGAN

STATION/POSITION TIME  TEMP WIND        PRES
                       AIR  DIR/SP/G
                 (UTC) (F)  (DEG/KT/KT) (MB)
MICHIGAN CITY    0200   60  140/  8/  9   N/A

$$

INZ004-005-014>016-021>024-250300-
NORTH CENTRAL INDIANA

CITY           SKY/WX    TMP DP  RH WIND       PRES   REMARKS
GOSHEN         CLEAR     49  47  93 CALM      29.99R
LOGANSPORT +   CLEAR     50  46  87 S6        30.00F
PERU/GRISSOM   CLEAR     51  51 100 S7        29.99S
ROCHESTER +    CLEAR     59  52  77 SW5       29.99F
SOUTH BEND     MOCLDY    52  47  83 CALM      29.99S
WARSAW +       CLEAR     48  46  93 CALM      29.99S

$$

INZ006>009-017-018-025>027-250300-
NORTHEAST INDIANA

CITY           SKY/WX    TMP DP  RH WIND       PRES   REMARKS
ANGOLA *+      MOCLDY    46  46 100 CALM      29.99S
AUBURN +       CLEAR     52  48  87 S5        30.00S
FORT WAYNE     PTCLDY    49  47  93 S7        30.01S
HUNTINGTON +   CLEAR     53  49  89 S3        30.00S

$$

INZ028-029-035-036-043>045-051>053-250300-
WEST CENTRAL INDIANA

CITY           SKY/WX    TMP DP  RH WIND       PRES   REMARKS
GREENCASTLE +  PTCLDY    50  48  93 CALM      30.03S
LAFAYETTE      PTCLDY    53  49  86 SW3       30.00S
TERRE HAUTE    CLEAR     50  47  89 CALM      30.02S

$$

INZ030>032-037>040-046>048-054>057-064-065-250300-
CENTRAL INDIANA

CITY           SKY/WX    TMP DP  RH WIND       PRES   REMARKS
CP ATTERBURY + PTCLDY    48  45  87 CALM      30.04S
FRANKFORT +    PTCLDY   N/A N/A N/A S3        30.03S
INDIANAPOLIS   PTCLDY    52  48  86 S7        30.02R
-EAGLE CREEK   PTCLDY    53  50  89 S3        30.01S
KOKOMO *+      FAIR      50  45  81 SW3       30.01S
MARION +       CLEAR     49  46  87 S5        30.02R
MT COMFORT *+  PTCLDY    50  46  87 S5        30.03R
SHELBYVILLE    PTCLDY    56  48  74 S7        30.03R
ZIONSVILLE +   CLEAR     52  47  85 SW3       30.03R

$$

INZ033-034-041-042-049-050-058-059-250300-
EAST CENTRAL INDIANA

CITY           SKY/WX    TMP DP  RH WIND       PRES   REMARKS
MUNCIE         CLEAR     55  49  80 S3        30.02R

$$

INZ060-061-067>069-081>083-085>088-250300-
SOUTHWEST INDIANA

CITY           SKY/WX    TMP DP  RH WIND       PRES   REMARKS
EVANSVILLE     CLEAR     57  52  83 W3        30.06R
HUNTINGBURG *+ CLEAR     57  48  72 SW3       30.06R
WASHINGTON +   CLEAR     55  53  90 SW6       30.04R

$$

INZ062-063-066-070>080-084-089>092-250300-
SOUTH CENTRAL AND SOUTHEAST INDIANA

CITY           SKY/WX    TMP DP  RH WIND       PRES   REMARKS
BLOOMINGTON    CLEAR     47  45  93 CALM      30.04R
NORTH VERNON + CLEAR     50  50 100 CALM      30.05

$$




USA.gov is the U.S. government's official web portal to all federal, state and local government web resources and services.